Regional Weather Roundup
Issued by NWS

Home | Current Version | Previous Version | Graphics & Text | Print | Product List | Glossary On
Versions: 1 2 3 4 5 6 7 8 9 10 11 12 13 14 15 16 17 18 19 20 21 22 23 24 25 26 27 28 29 30 31 32 33 34 35 36 37 38 39 40 41 42 43 44 45 46 47 48 49 50
000
ASUS43 KOAX 042310
RWRNE

WEATHER ROUNDUP FOR NEBRASKA
NATIONAL WEATHER SERVICE OMAHA NE
600 PM CDT MON MAY 04 2015

NOTES: SATELLITE DATA IS BEING USED TO AUGMENT CLOUD COVER ABOVE
       12000 FEET.
       "FAIR" INDICATES FEW OR NO CLOUDS BELOW 12,000 FEET WITH NO
       SIGNIFICANT WEATHER AND/OR OBSTRUCTIONS TO VISIBILITY.

  * THESE STATIONS DO NOT REPORT WEATHER SUCH AS RAIN...SNOW OR FOG.

NEZ001>004-019>022-054>056-050000-
NEBRASKA PANHANDLE

CITY           SKY/WX    TMP DP  RH WIND       PRES   REMARKS
SCOTTSBLUFF    CLOUDY    60  37  42 SE18      30.09S
ALLIANCE       CLOUDY    60  33  36 E16G26    30.10F
CHADRON        CLOUDY    53  42  66 E10       30.12F
KIMBALL        CLOUDY    60  43  53 E16       30.07F
SIDNEY         MOSUNNY   57  42  57 E16       30.11S
$$

NEZ057>060-069>072-079>082-050000-
SOUTHWEST NEBRASKA

CITY           SKY/WX    TMP DP  RH WIND       PRES   REMARKS
NORTH PLATTE   LGT RAIN  50  45  83 CALM      30.14S
IMPERIAL       CLOUDY    50  45  83 NE17      30.10S
LEXINGTON      CLOUDY    54  51  92 NE14      30.08F FOG
MCCOOK         CLOUDY    56  48  74 N21       30.07R
OGALLALA       CLOUDY    48  45  89 E8        30.12F
$$

NEZ005>010-023>029-035>040-094-050000-
NORTH CENTRAL NEBRASKA

CITY           SKY/WX    TMP DP  RH WIND       PRES   REMARKS
VALENTINE      CLOUDY    65  26  23 E12       30.12F
AINSWORTH      CLOUDY    65  31  28 SE15G22   30.12S
BROKEN BOW     LGT RAIN  53  49  86 NE7       30.10F
O`NEILL        CLOUDY    65  36  34 E8        30.12F
ORD            CLOUDY    56  46  69 E9        30.10F
THEDFORD       CLOUDY    61  32  33 SE9       30.14S
$$

NEZ041-046>049-061>064-073>077-083>087-050000-
SOUTH CENTRAL NEBRASKA

CITY           SKY/WX    TMP DP  RH WIND       PRES   REMARKS
GRAND ISLAND   CLOUDY    54  52  93 N15       30.08F FOG
AURORA         CLOUDY    56  55  95 NE17      30.07S
HASTINGS       CLOUDY    56  52  86 NE16      30.06S
HEBRON         CLOUDY    65  56  73 NE14      30.01S
HOLDREGE       CLOUDY    55  49  81 NE20      30.05F
KEARNEY *      CLOUDY    55  48  76 NE18      30.07F
YORK           CLOUDY    57  55  94 NE14      30.06S
$$

NEZ011>018-030>034-042>045-050000-
NORTHEAST NEBRASKA

CITY           SKY/WX    TMP DP  RH WIND       PRES   REMARKS
NORFOLK        CLOUDY    58  50  75 E13       30.11S
ALBION         LGT RAIN  55  49  82 E10       30.11S
BLAIR          LGT RAIN  57  55  91 N16G22    30.07F
COLUMBUS *     CLOUDY    55  48  76 E14       30.10S
FREMONT        RAIN      57  55  90 NE8       30.10S
TEKAMAH        RAIN      58  54  86 NE16      30.10F FOG
WAYNE          LGT RAIN  60  50  70 E16       30.12F
$$

NEZ050>053-065>068-078-088>093-050000-
SOUTHEAST NEBRASKA

CITY           SKY/WX    TMP DP  RH WIND       PRES   REMARKS
LINCOLN        CLOUDY    59  56  89 NE17G24   30.05S
OMAHA EPPLEY   LGT RAIN  61  58  90 NE14      30.06F
BEATRICE       CLOUDY    63  60  90 NE13G18   30.02F
FALLS CITY     CLOUDY    67  63  87 NE3       30.01R
NEBRASKA CITY  DRIZZLE   63  63  99 NE9       30.04S
PLATTSMOUTH    RAIN      63  60  91 N6        30.05F
$$

NEZ044-045-051>053-067-050000-
OMAHA AREA

CITY           SKY/WX    TMP DP  RH WIND       PRES   REMARKS
OMAHA EPPLEY   LGT RAIN  61  58  90 NE14      30.06F
BLAIR          LGT RAIN  57  55  91 N16G22    30.07F
FREMONT        RAIN      57  55  90 NE8       30.10S
MILLARD        CLOUDY    61  56  84 N3        30.06S
OFFUTT AFB     LGT RAIN  61  59  94 N8        30.05S
PLATTSMOUTH    RAIN      63  60  91 N6        30.05F
$$


USA.gov is the U.S. government's official web portal to all federal, state and local government web resources and services.